EHI
12 21 33 39 35 28 21 16 12 6 3 3 3 2 3 4 4 2 1 0 0 0 0 0 0 0 0 0 0 0 0 1 2 2 1 0 0 0 0 0 0 0 0
21 27 36 42 39 30 23 17 12 6 3 2 1 1 2 2 1 1 0 0 0 0 0 0 0 0 0 0 0 0 0 0 1 1 0 0 0 0 0 0 0 0 0
36 35 40 46 44 33 24 17 11 6 3 1 0 0 0 0 0 0 0 0 0 0 0 0 0 0 0 0 0 0 0 0 0 0 0 0 0 0 0 0 0 0 0
45 40 42 48 46 34 23 16 10 5 2 0 0 0 0 0 0 0 0 0 0 0 0 0 0 0 0 0 0 0 0 0 0 0 0 0 0 0 0 0 0 0 0
50 45 46 49 45 33 22 14 10 6 2 0 0 0 0 0 0 0 0 0 0 0 0 0 0 0 0 0 0 0 0 0 0 0 0 0 0 0 0 0 0 0 0
56 52 50 50 43 31 23 16 13 8 3 0 0 0 0 0 0 0 0 0 0 0 0 0 0 0 0 0 0 0 0 0 0 0 0 0 0 0 0 0 0 0 0
61 56 53 50 41 31 25 21 17 11 6 2 1 0 0 0 0 0 0 0 0 0 0 0 1 1 1 0 0 0 0 0 0 0 0 0 0 0 0 0 0 0 0
66 59 53 49 40 31 26 23 19 14 8 4 2 1 0 0 0 0 0 0 0 0 0 1 2 2 2 1 0 0 1 1 0 0 0 0 0 0 0 0 0 0 0
69 61 52 44 37 30 25 22 18 14 10 6 3 1 0 0 0 0 0 0 0 0 0 1 2 3 3 3 1 1 1 1 1 0 0 0 1 1 1 0 0 0 0
64 58 49 40 34 28 23 20 16 12 9 6 3 1 0 0 0 0 0 0 0 0 0 1 2 3 5 5 3 2 1 1 1 0 0 0 1 1 1 0 0 0 0
52 48 44 39 33 27 22 17 14 10 7 5 2 1 1 0 0 0 0 0 0 0 0 0 1 4 5 4 3 2 1 0 0 0 0 1 2 1 0 0 0 0 0
43 40 38 35 29 24 20 16 11 7 5 3 2 1 1 0 0 0 0 0 0 0 0 0 1 3 3 2 1 1 0 0 0 0 0 1 2 2 0 0 0 0 0
43 39 33 30 25 19 16 13 8 5 4 3 2 1 0 0 0 1 1 1 1 0 0 0 0 1 0 0 0 0 0 0 0 0 0 1 2 1 0 0 0 0 0
43 38 31 25 19 14 12 10 7 4 3 3 2 1 0 0 0 0 1 1 1 0 0 0 0 0 0 0 0 0 0 0 0 0 0 0 1 1 1 0 0 0 0
44 37 29 22 15 10 9 8 6 3 2 2 2 1 0 0 0 0 0 0 0 0 0 0 0 0 0 0 0 0 0 0 0 0 0 0 1 1 1 0 0 0 0
45 38 30 23 16 11 10 9 7 3 1 1 1 0 0 0 0 0 0 0 0 0 0 0 0 0 0 0 0 0 0 0 0 0 0 0 0 0 0 0 0 0 0
44 39 31 24 19 16 13 11 9 5 2 0 0 0 0 0 0 0 0 0 0 0 0 0 0 0 0 0 0 0 0 0 0 0 0 0 0 0 0 0 1 1 0
38 35 30 25 23 19 14 10 7 5 3 1 0 0 0 0 0 0 1 1 1 1 0 0 0 0 0 0 0 0 0 0 0 0 0 0 0 0 0 0 1 1 1
30 29 28 27 24 19 14 8 6 5 3 2 1 1 1 0 0 0 1 2 2 1 0 0 0 0 0 0 0 0 0 0 0 0 0 0 0 0 0 0 1 1 0
26 25 27 27 23 18 13 9 6 4 3 2 2 2 1 0 0 0 0 1 1 1 0 0 0 0 0 0 0 0 0 0 0 0 0 0 0 0 0 0 0 0 0
24 23 24 23 19 15 11 7 5 3 3 3 3 2 1 0 0 0 0 0 0 0 0 0 0 0 0 0 0 0 0 0 0 0 0 0 0 0 0 0 0 0 0
20 18 17 16 13 9 6 4 2 1 2 2 2 1 0 0 0 0 0 0 0 0 0 0 0 0 0 0 0 0 0 0 0 0 0 0 0 0 0 0 0 0 0
15 13 12 10 7 3 3 2 1 0 1 1 1 0 0 0 0 0 0 0 0 0 0 0 0 0 0 0 0 0 0 0 0 0 0 0 0 0 0 0 0 0 0
11 10 9 6 3 1 1 1 0 0 0 0 0 0 0 0 0 0 0 0 0 0 0 0 0 0 0 0 0 0 0 0 0 0 0 0 0 0 0 0 0 0 0
10 9 7 5 2 1 0 0 0 0 0 0 0 0 0 0 0 0 0 0 0 0 0 0 0 0 0 0 0 0 0 0 0 0 0 0 0 0 0 0 0 0 0
10 8 6 5 3 1 0 0 0 0 0 0 0 0 0 0 0 0 0 0 0 0 0 0 0 0 0 0 0 0 0 0 0 0 0 0 0 0 0 0 0 0 0
Wind_Speed
10 12 19 20 20 19 19 19 19 18 18 18 18 18 18 17 17 16 16 15 15 14 14 14 14 14 14 14 15 15 15 15 15 16 16 15 15 15 15 16 15 11 17
14 15 20 20 20 19 19 19 18 18 18 18 18 17 17 17 16 16 15 15 15 15 15 14 14 14 14 14 14 14 14 14 15 16 16 14 15 15 15 16 14 10 16
18 15 18 20 20 20 19 18 18 18 17 17 17 17 16 16 16 16 15 15 15 15 15 14 14 14 14 13 13 13 13 13 14 16 14 8 10 15 15 15 15 15 15
18 14 16 22 21 20 19 18 18 18 17 17 16 16 16 16 15 15 15 15 14 14 14 14 13 13 13 12 11 11 10 11 13 14 7 6 7 14 15 15 15 15 15
15 13 17 23 21 20 19 18 18 17 17 17 16 16 16 15 15 15 15 14 14 14 13 13 12 12 11 11 10 9 8 8 11 10 6 6 6 13 15 14 14 14 14
13 12 17 23 21 20 20 19 18 17 17 16 16 15 15 15 15 15 14 14 13 13 12 11 11 10 10 10 9 8 8 10 10 6 6 6 5 12 14 14 14 14 13
13 11 15 22 22 21 20 19 18 17 17 16 16 15 14 14 15 14 14 13 13 12 11 10 10 9 9 9 8 8 7 11 7 7 5 5 6 12 13 13 13 13 13
15 12 13 21 22 21 20 19 18 18 17 16 16 15 14 14 14 14 14 13 12 12 10 9 8 8 7 7 7 8 9 11 9 8 5 5 9 12 13 12 12 12 12
14 12 9 12 16 20 20 19 18 17 17 16 15 15 14 14 14 13 13 12 12 11 9 8 7 6 6 5 6 7 8 11 7 5 7 4 10 12 13 12 12 11 11
11 11 9 8 9 9 12 18 18 17 17 16 15 15 14 13 13 13 11 11 11 10 8 7 5 4 4 4 5 7 9 10 5 4 4 6 12 13 12 12 11 11 11
11 8 9 9 8 8 8 14 14 16 15 14 12 14 12 6 6 7 10 11 10 9 8 6 4 2 2 3 3 6 8 3 4 3 3 8 11 12 12 12 11 11 11
13 10 9 9 9 8 8 7 5 6 7 6 5 6 4 4 4 6 9 11 10 8 7 5 3 1 1 1 3 5 3 4 3 3 4 11 11 12 12 12 11 11 11
14 12 10 10 9 8 6 6 4 3 4 4 5 5 4 3 3 3 3 4 4 5 2 2 1 1 1 1 1 2 3 3 2 3 5 12 11 12 12 12 12 11 11
14 13 11 10 9 7 7 6 5 4 4 4 4 6 4 3 3 3 2 2 2 2 2 1 1 1 1 1 2 3 4 3 2 2 4 11 11 12 13 13 13 12 12
13 12 12 10 10 8 7 6 6 4 4 4 4 5 5 4 4 4 3 2 2 2 2 2 1 1 1 1 2 3 3 3 3 3 3 10 11 11 12 13 13 13 13
13 13 11 11 10 9 7 6 6 5 5 4 4 5 6 5 4 4 3 3 2 2 2 2 2 2 1 1 2 3 3 3 4 4 3 6 11 11 11 12 13 13 13
13 12 11 10 9 9 8 7 6 5 5 5 4 5 5 5 5 4 3 3 2 2 3 2 2 2 1 1 2 2 2 3 3 4 4 3 4 9 11 11 12 12 13
12 11 9 9 8 8 8 7 5 5 6 4 4 4 5 5 5 4 3 2 2 2 3 3 2 2 2 1 0 0 1 1 3 4 4 3 3 3 7 11 11 11 12
12 11 9 8 8 8 8 7 6 6 5 4 4 4 4 5 5 4 3 2 3 3 2 2 2 2 1 1 0 0 0 1 2 3 3 4 4 4 3 6 10 10 11
9 9 9 9 8 8 7 6 5 5 4 4 4 4 5 4 5 5 3 3 3 3 2 2 2 2 1 1 0 1 1 1 1 1 2 2 3 4 3 3 3 5 9
9 8 8 8 7 7 6 6 5 5 4 4 3 5 5 5 5 5 4 3 3 3 3 3 2 2 1 1 2 2 3 2 1 0 1 1 1 2 2 3 2 2 3
10 10 8 8 7 7 6 5 4 5 4 3 3 4 5 5 5 5 5 4 3 3 3 3 3 2 1 1 2 2 2 4 3 2 1 1 1 1 1 3 3 2 2
10 11 10 8 8 7 7 5 5 4 4 3 3 3 3 5 5 5 5 4 4 3 3 3 3 3 2 2 2 3 3 1 2 3 2 1 0 0 0 1 2 2 2
10 9 9 9 8 7 7 8 9 7 5 4 4 3 3 4 5 5 5 5 4 3 3 2 3 3 3 2 2 2 2 3 3 1 3 3 2 0 1 0 1 1 2
10 9 9 9 8 7 7 8 8 6 4 4 4 5 4 3 4 5 5 5 4 3 3 4 4 3 3 3 2 1 3 3 2 3 0 3 3 2 2 1 1 1 1
9 9 9 9 8 7 7 7 8 8 8 8 6 6 4 3 3 4 5 5 4 4 4 4 4 5 3 3 3 2 2 2 1 2 2 1 2 3 2 2 1 0 1
Wind_Direction
149 152 145 138 132 127 122 118 114 111 108 106 104 103 103 103 103 103 103 103 101 100 99 98 98 97 98 100 103 105 108 109 109 110 112 114 114 113 112 110 108 109 111
149 151 146 141 136 131 127 123 119 116 113 111 109 108 107 107 107 106 106 106 104 102 101 100 99 98 99 101 103 105 107 108 109 109 109 111 113 112 111 111 110 114 114
145 148 146 143 138 135 131 128 125 121 118 116 114 113 111 110 109 109 109 108 107 104 102 101 100 98 98 99 101 105 109 111 110 107 104 99 107 111 113 113 112 113 115
144 146 146 144 141 138 136 133 130 127 124 121 119 117 115 114 113 112 112 110 109 107 104 102 100 98 96 95 96 100 107 114 114 111 102 101 108 114 114 114 114 115 117
143 145 149 146 144 141 139 137 134 131 129 126 124 121 119 119 118 115 115 113 112 110 107 103 100 97 94 91 90 91 98 111 117 105 101 96 102 118 117 117 117 118 119
142 145 150 147 145 144 142 140 138 136 134 132 130 127 125 123 122 121 118 116 115 113 109 105 100 95 90 85 82 79 90 107 112 106 107 108 111 122 122 121 120 121 121
143 147 150 148 147 146 145 144 142 140 139 137 135 133 130 129 128 126 123 120 119 117 113 109 103 95 86 80 75 70 94 115 115 117 115 113 120 125 124 123 123 123 123
144 144 149 150 149 149 148 147 146 145 143 141 139 138 136 134 132 131 129 127 124 123 121 116 109 100 89 78 70 68 91 113 114 123 120 123 132 130 129 128 126 125 126
142 143 147 151 150 151 151 150 150 149 147 145 143 142 141 139 138 137 136 134 132 130 129 124 115 104 91 76 66 69 96 116 116 128 137 134 138 135 135 134 133 132 131
141 144 145 146 145 147 151 152 153 152 151 150 149 147 146 145 144 142 141 142 141 140 140 136 127 112 91 71 65 75 97 117 122 128 127 146 144 143 143 142 141 140 139
146 148 146 146 145 144 149 157 155 156 157 155 155 155 150 142 142 147 153 153 150 150 150 149 145 128 88 57 70 89 96 115 123 130 142 154 151 150 150 150 148 148 147
156 157 156 152 151 152 157 149 151 155 155 151 152 151 143 147 159 159 166 162 159 158 157 159 156 104 61 38 69 90 102 121 127 146 165 163 161 159 159 157 156 155 154
157 161 160 159 160 163 150 152 155 150 150 151 154 151 149 148 157 152 156 160 158 158 145 147 122 66 83 71 80 99 120 125 147 167 174 171 170 168 168 167 165 165 164
157 162 161 163 163 163 152 159 158 156 161 163 166 160 149 146 147 152 158 157 150 142 144 132 121 125 98 89 116 126 133 139 156 150 178 180 179 178 177 175 173 174 173
157 158 162 165 166 162 157 163 159 162 170 166 163 161 153 151 154 154 157 158 158 149 149 143 131 124 111 112 128 130 130 142 159 171 185 191 190 190 187 184 182 183 182
160 161 165 168 168 161 161 161 158 162 159 151 151 156 151 149 150 151 151 153 154 158 155 151 146 135 124 118 107 119 131 147 172 184 191 198 202 198 197 195 193 192 191
160 164 165 166 165 160 160 160 156 155 149 148 147 145 144 144 146 145 141 142 156 149 136 121 113 102 96 79 74 91 127 150 176 186 187 196 206 208 207 205 202 201 200
158 163 166 163 162 160 155 150 147 147 143 141 136 140 142 141 138 133 132 139 149 131 123 120 108 94 81 74 63 17 127 162 180 190 196 200 201 210 216 212 209 209 207
158 162 164 157 164 154 143 141 138 137 134 134 133 134 137 137 136 131 133 139 131 118 117 129 106 116 108 94 223 201 254 197 197 193 194 201 203 205 206 220 217 215 215
150 155 156 154 155 139 129 125 123 122 127 130 133 137 134 132 131 126 124 121 120 109 102 103 102 91 112 157 35 36 337 287 204 183 200 194 200 203 194 203 215 227 225
147 153 152 147 149 138 137 139 139 141 139 134 141 139 135 131 128 124 119 114 116 113 119 117 100 81 52 73 66 23 355 355 11 267 205 164 181 192 177 187 194 211 236
159 161 154 154 156 151 149 144 140 136 137 138 135 133 136 133 133 130 124 124 119 109 98 93 93 97 40 73 110 88 24 358 352 358 6 147 174 179 175 190 185 196 217
162 165 164 163 156 153 147 131 123 108 101 106 123 134 143 136 131 126 128 126 121 117 117 113 112 115 96 32 85 130 130 197 316 339 352 16 5 128 165 166 182 188 194
166 162 157 160 158 159 152 146 150 151 151 166 156 149 145 139 134 130 130 127 122 119 121 121 109 113 110 75 31 51 123 151 132 3 337 343 351 30 296 235 142 157 152
164 162 157 154 160 163 158 155 153 150 149 145 139 139 141 138 137 134 130 127 124 121 123 113 101 97 104 114 103 79 66 58 81 121 349 329 342 328 309 274 188 171 161
162 161 159 156 162 165 158 156 155 152 150 148 150 152 150 138 132 137 131 128 129 126 125 123 114 108 103 103 99 94 110 106 106 120 141 288 312 309 328 335 315 168 156